Showing default

GLOBALSTAR M036, 25623

Orbit data source: Space-Track

GLOBALSTAR M036, 25623 is a payload satellite owned by Globalstar (US) in LEO that was launched on Tue, 09 Feb 1999 UTC via a SOYUZ-U-PVB launch vehicle from the Tyuratam Missile And Space Complex (TTMTR). Payload-class satellites include a variety of spacecraft equipped with specific instruments for various scientific and technological missions. These include communications satellites like Starlink; space stations such as the ISS; scientific satellites like the Hubble; Earth observation satellites from companies like Planet Labs, Umbra, and HawkEye 360; GPS; miniature CubeSats for education and research; and military/defense satellites.

Loading next visibility...
Identifier
25623, 1999-004C
Orbit
LEO
Country
Flag of UnknownUnknown / GLOB
Related business
Manufacturer
SS/Loral
Mission
Non-operational Commercial Communications
Bus & Motor
LS-400, LS-400 AOCS
Mass
450 kg wet, 380 kg dry
Launch date (UTC)
1999-02-09 (27 years ago)
Launch vehicle
SOYUZ-U-PVB
Launch site
Tyuratam Missile And Space Complex (TTMTR)
Object type
Payload
Rocket body
Debris
Shape & HBR
Box + 2 Pan, 6.0 m
Radar Cross Section
5.587 m², Large (>1 m²)

Expand to show TLE details & history
Last TLE update: 8 hours ago

TLE from 8 hours ago
0 GLOBALSTAR M036
1 25623U 99004C   25258.60545275 -.00000048  00000-0  50467-3 0  9994
2 25623  52.0004   1.9961 0010647 221.1378 241.3530 11.86608549189711
Epoch: 2025-09-15T14:31Z
TLE epoch observation values (Epoch: 2025-09-15T14:31:51.117Z)
Latitude
50.45595°
Longitude
-101.12694°
Altitude
1,751.509 km
Speed
7.007 km/s
True Right ascension
07h 26m 34s
True Declination
50° 18' 28"
Sunlit
Object was in daylight at epoch
Visualization orbit readout
Latitude
Unknown
Longitude
Unknown
Altitude
Unknown
Speed
Unknown
Apparent Right ascension
Unknown
Apparent Declination
Unknown
Sunlit
N/A
Visualization observer readout
Local Sidereal Time
14:50:48
Azimuth
Unknown
Elevation
Unknown
Doppler factor
Unknown
Orbital elements
Apogee altitude
1,750.402 km
Perigee altitude
1,733.112 km
Semi-major axis
8,119.894 km
Eccentricity
0.00106
Inclination
52.0004°
RAAN
1.9961°
Arg. of periapsis
221.1378°
True anomaly
241.246°
Mean anomaly
241.353°
Eccentric anomaly
241.29949°
Mean motion
2.96632 °/min
Orbital period
121.36 mins
BSTAR
0.00050467
Loading maneuver chart data...
Computing Atmospheric mass density...
Loading historical data...
Loading historical data...
Loading historical data...
Loading historical data...
Loading historical data...
Loading historical data...
Loading historical data...
Other satellites on launch #4 in the year 1999 (1999-02-09 UTC)

Documentation

Showing up to 5 results
|